Waco, TX

3:10 PM CDT on April 19, 2018 (GMT -0500)
Waco Regional

Weather History for KACT - October, 2011

Change the Weather History Date:

Wednesday, October 5, 2011

  Actual Average Record
Temperature  
Mean Temperature 71 °F 72 °F  
Max Temperature 87 °F 84 °F 97 °F (1904)
Min Temperature 55 °F 60 °F 43 °F (2010)
Degree Days  
Heating Degree Days 0 1  
Month to date heating degree days 0 5  
Since 1 July heating degree days 0 11  
Cooling Degree Days 6 7  
Month to date cooling degree days 20 39  
Year to date cooling degree days 3619 2633  
Growing Degree Days 22 (Base 50)    
Moisture  
Dew Point 48 °F    
Average Humidity 50    
Maximum Humidity 80    
Minimum Humidity 19    
Precipitation  
Precipitation 0.00 in 0.12 in 1.60 in (1998)
Month to date precipitation 0.00 0.56  
Year to date precipitation 14.07 25.78  
Snow  
Snow 0.00 in 0.00 in 0.00 in ()
Month to date snowfall 0.0 0.0  
Since 1 July snowfall 0.0 0.0  
Since 1 September snowfall 0.0 0.0  
Snow Depth 0.00 in    
Sea Level Pressure  
Sea Level Pressure 30.06 in    
Wind  
Wind Speed 9 mph (SSE)    
Max Wind Speed 18 mph    
Max Gust Speed 23 mph    
Visibility 10 miles    
Events      
T = Trace of Precipitation, MM = Missing Value Source: NWS Daily Summary

Daily Weather History Graph

Daily Weather History Graph

Search for Another Location

Airport or City:

Astronomy

Oct. 05, 2011 Rise Set
Actual Time 7:25 AM CDT 7:09 PM CDT
Civil Twilight 7:00 AM CDT 7:33 PM CDT
Nautical Twilight 6:32 AM CDT 8:01 PM CDT
Astronomical Twilight 6:04 AM CDT 8:29 PM CDT
Moon 3:30 PM CDT (10/5) 1:34 AM CDT (10/5)
Length of Visible Light 12h 32m
Length of Day
11h 43m
Waxing Gibbous, 66% of the Moon is Illuminated
Oct 5
Waxing Gibbous
Oct 11
Full
Oct 19
Last Quarter
Oct 26
New
Nov 2
First Quarter

Hourly Weather History & Observations

Time (CDT) Temp. Dew Point Humidity Pressure Visibility Wind Dir Wind Speed Gust Speed Precip Events Conditions
12:51 AM 69.8 °F 48.2 °F 46% 30.11 in 10.0 mi SSE 6.9 mph - N/A   Clear
1:51 AM 66.9 °F 53.1 °F 61% 30.09 in 10.0 mi South 5.8 mph - N/A   Clear
2:51 AM 68.0 °F 54.0 °F 61% 30.10 in 10.0 mi South 6.9 mph - N/A   Clear
3:51 AM 66.9 °F 53.1 °F 61% 30.09 in 10.0 mi SSE 9.2 mph - N/A   Clear
4:51 AM 66.0 °F 55.9 °F 70% 30.09 in 10.0 mi South 6.9 mph - N/A   Clear
5:51 AM 64.0 °F 55.0 °F 73% 30.11 in 10.0 mi SSE 4.6 mph - N/A   Clear
6:51 AM 57.9 °F 51.1 °F 78% 30.13 in 10.0 mi ESE 4.6 mph - N/A   Clear
7:51 AM 57.9 °F 51.1 °F 78% 30.14 in 10.0 mi Calm Calm - N/A   Clear
8:51 AM 63.0 °F 54.0 °F 72% 30.14 in 10.0 mi East 3.5 mph - N/A   Clear
9:51 AM 71.1 °F 57.0 °F 61% 30.15 in 10.0 mi South 8.1 mph - N/A   Clear
10:51 AM 73.9 °F 57.0 °F 55% 30.14 in 10.0 mi SSE 10.4 mph - N/A   Clear
11:51 AM 79.0 °F 52.0 °F 39% 30.12 in 10.0 mi South 8.1 mph - N/A   Clear
12:51 PM 82.0 °F 45.0 °F 27% 30.09 in 10.0 mi SSE 10.4 mph - N/A   Clear
1:51 PM 84.9 °F 43.0 °F 23% 30.06 in 10.0 mi South 12.7 mph - N/A   Clear
2:51 PM 86.0 °F 44.1 °F 23% 30.02 in 10.0 mi South 9.2 mph - N/A   Clear
3:51 PM 84.9 °F 39.0 °F 20% 29.99 in 10.0 mi SSE 11.5 mph - N/A   Clear
4:51 PM 86.0 °F 39.0 °F 19% 29.96 in 10.0 mi SE 12.7 mph - N/A   Clear
5:51 PM 84.9 °F 39.0 °F 20% 29.95 in 10.0 mi SE 12.7 mph - N/A   Clear
6:51 PM 84.0 °F 39.0 °F 20% 29.95 in 10.0 mi SE 15.0 mph - N/A   Clear
7:51 PM 80.1 °F 39.0 °F 23% 29.95 in 10.0 mi SE 11.5 mph - N/A   Clear
8:51 PM 78.1 °F 37.9 °F 24% 29.96 in 10.0 mi SE 9.2 mph - N/A   Clear
9:51 PM 77.0 °F 41.0 °F 28% 30.00 in 10.0 mi SE 9.2 mph - N/A   Clear
10:51 PM 77.0 °F 48.0 °F 36% 29.99 in 10.0 mi SE 12.7 mph - N/A   Clear
11:51 PM 75.9 °F 54.0 °F 46% 29.99 in 10.0 mi SSE 16.1 mph 23.0 mph N/A   Clear